Regional Weather Roundup
Issued by NWS Albany, NY

Home | Current Version | Previous Version | Graphics & Text | Print | Product List | Glossary Off
Versions: 1 2 3 4 5 6 7 8 9 10 11 12 13 14 15 16 17 18 19 20 21 22 23 24 25 26 27 28 29 30 31 32 33 34 35 36 37 38 39 40 41 42 43 44 45

000
ASUS41 KALY 291310
RWRALY

NEW YORK STATE HOURLY WEATHER ROUNDUP
NATIONAL WEATHER SERVICE ALBANY NY
800 AM EST THU JAN 29 2015

NOTE: "FAIR" INDICATES FEW OR NO CLOUDS BELOW 12,000 FEET WITH NO
SIGNIFICANT WEATHER AND/OR NO OBSTRUCTIONS TO VISIBILITY.

NYZ032-033-038>043-046>054-057>066-NYZ062>081-291400-
EAST


CITY           SKY/WX    TMP DP  RH WIND       PRES   REMARKS
ALBANY         MOCLDY    -2  -8  76 CALM      30.34S
GLENS FALLS    PTCLDY    -8 -13  78 CALM      30.33S
POUGHKEEPSIE   PTCLDY    -2  -8  76 CALM      30.36R
MONTGOMERY     MOCLDY    -4  -7  87 CALM      30.33R
WHITE PLAINS   PTCLDY    15  -3  44 NW5       30.30R WCI   8
ISLIP          PTCLDY    17   8  67 N5        30.30S WCI  10
NEW YORK CITY  PTCLDY    23   7  50 N3        30.34R
CENTRAL PARK   CLEAR     19   2  47 W5        30.35R WCI  12
$$

NYZ005>009-017-018-044>046-055-056-291400-
CENTRAL


CITY           SKY/WX    TMP DP  RH WIND       PRES   REMARKS
FULTON         PTCLDY     8   1  73 SE7       30.19F WCI  -3
SYRACUSE       MOCLDY     2  -1  88 E7        30.20F WCI -11
ROME           PTCLDY     2  -6  69 SE9       30.28F WCI -13
ELMIRA         MOCLDY     0  -4  83 CALM      30.20F
BINGHAMTON     PTCLDY     3   2  95 SE8       30.14F WCI -10
MONTICELLO     PTCLDY     1  -4  78 CALM      30.25R
$$

NYZ026>034-041>043-291400-
NORTH


CITY           SKY/WX    TMP DP  RH WIND       PRES   REMARKS
WATERTOWN      PTCLDY     5  -1  76 E5        30.20F WCI  -4
FORT DRUM      NOT AVBL
MASSENA        PTCLDY    -3  -8  79 CALM      30.25F
SARANAC LAKE   MOCLDY   -16 -22  74 CALM      30.14F
PLATTSBURGH    MOCLDY    -1  -5  82 CALM      30.30F
$$

NYZ001>004-010>016-019>021-291400-
WEST


CITY           SKY/WX    TMP DP  RH WIND       PRES   REMARKS
NIAGARA FALLS  CLOUDY    21   7  54 SE8       30.04F WCI  11
BUFFALO        CLOUDY    25   4  40 SE9       30.05F WCI  15
DUNKIRK        CLOUDY    32   4  30 S18       30.01F WCI  20
JAMESTOWN      CLOUDY    23   1  39 S16G24    29.99F WCI  10
WELLSVILLE     CLOUDY    21  -2  36 S10       30.06F WCI  10
ROCHESTER      CLOUDY    12   2  64 SW6       30.13F WCI   3
PENN YAN       CLOUDY    14   2  58 S13       30.14F WCI   0
$$

             KEY
       WCI = WIND CHILL INDEX
       VSB = VISIBILITY
       HX  = HEAT INDEX
$$



USA.gov is the U.S. government's official web portal to all federal, state and local government web resources and services.